Location: Hains Lake
(37.8540°N, 99.8578°W)
Time: 00:29:19
(UTC+00:00)

Cosmos 407 Rocket - Pass Details

Date: 11 December 2019
Orbit: 743 x 787 km, 74.0° (Epoch: 17 January)

Event Time Altitude Azimuth Distance (km) Brightness Sun altitude
Rises 23:46:39 0° 169° (S) 3,182 6.9 -5.4°
Reaches altitude 10° 23:49:14 10° 159° (SSE) 2,268 6.0 -5.9°
Maximum altitude 23:53:39 30° 99° (E) 1,349 4.4 -6.7°
Drops below altitude 10° 23:58:08 10° 40° (NE) 2,307 5.4 -7.5°
Enters shadow 23:59:35 - 34° (NE) 2,809 5.9 -7.8°
